Home > Weather > Winchester > Past weeks

Flag for United Kingdom Past Weather in Winchester, England, United Kingdom — Yesterday and Last 2 Weeks

Now
63 °F

Partly cloudy.


Feels Like: 63 °F
Forecast: 59 / 68 °F
Wind: 8 mph from Southwest

Location: Middle Wallop

Current Time: Jul 28, 2016 at 11:25:19 PM

Latest Report: Jul 28, 2016 at 10:50 PM


Visibility: N/A

Pressure: 29.89 "Hg

Humidity: 94%

Dew Point: 61 °F

Location of WinchesterLocation

Past Weather in Winchester — Graph

°F

Winchester Temperature Yesterday

Maximum temperature yesterday: 73 °F (at 4:50 PM)
Minimum temperature yesterday: 59 °F (at 11:50 PM)
Average temperature yesterday: 65 °F

High & Low Weather Summary for the Past Weeks

 TemperatureHumidityPressure
High90 °F (Jul 19, 2:50 PM)100% (Jul 18, 4:50 AM)30.33 "Hg (Jul 18, 4:50 AM)
Low50 °F (Jul 14, 12:50 AM)36% (Jul 19, 2:50 PM)29.71 "Hg (Jul 20, 6:50 AM)
Average66 °F75%30.11 "Hg
* Reported Jul 13 9:50 PM — Jul 28 9:50 PM, Winchester, Weather by CustomWeather, © 2016

Note: Actual official high and low records may vary slightly from our data, if they occured in-between our weather recording intervals... More about our weather records

Advertising

Winchester Weather History for the Previous 24 Hours

Scroll right to see more
 ConditionsComfort  
Time TempWeatherWind HumidityBarometerVisibility
9:50 PM
Thu, Jul 28
63 °FPartly sunny.6 mph94%29.89 "HgN/A
8:50 PM66 °FBroken clouds.6 mph88%29.89 "HgN/A
7:50 PM66 °FLots of rain. Partly sunny.9 mph94%29.89 "Hg4 mi
6:50 PM68 °FSprinkles. Scattered clouds.6 mph88%29.89 "HgN/A
5:50 PM70 °FPassing clouds.7 mph78%29.89 "HgN/A
4:50 PM66 °FSprinkles. Broken clouds.8 mph88%29.89 "Hg4 mi
3:50 PM64 °FDrizzle. Partly sunny.8 mph88%29.92 "HgN/A
2:50 PM63 °FMostly cloudy.12 mph88%29.95 "HgN/A
1:50 PM63 °FDrizzle. Mostly cloudy.13 mph88%29.95 "Hg4 mi
1:04 PM66 °FDrizzle. Cloudy.17 mph68%29.98 "HgN/A
12:50 PM66 °FMostly cloudy.14 mph64%29.98 "HgN/A
11:50 AM66 °FPartly sunny.12 mph56%29.98 "HgN/A
10:50 AM66 °FPartly sunny.10 mph56%29.98 "HgN/A
9:50 AM64 °FSunny.6 mph64%29.98 "Hg10 mi
8:50 AM61 °FBroken clouds.3 mph68%29.98 "HgN/A
7:50 AM57 °FBroken clouds.5 mph82%30.01 "HgN/A
6:50 AM54 °FBroken clouds.3 mph88%30.01 "HgN/A
5:50 AM52 °FPassing clouds.2 mph94%30.01 "HgN/A
4:50 AM54 °FPassing clouds.3 mph88%30.01 "HgN/A
3:50 AM55 °FPassing clouds.3 mph88%30.01 "HgN/A
2:50 AM57 °FPartly cloudy.6 mph88%30.01 "HgN/A
1:50 AM57 °FPassing clouds.5 mph88%30.01 "HgN/A
12:50 AM57 °FPassing clouds.6 mph94%30.01 "HgN/A
11:50 PM
Wed, Jul 27
59 °FPassing clouds.8 mph88%30.01 "HgN/A
Weather by CustomWeather, © 2016

See weather overviewHow to use our weather pages